Location: eljas
(40.1958°N, 6.8661°W)
Time: 22:14:10
(UTC+01:00)

Daily predictions for brighter satellites

Satellite Brightness Start Highest point End
(mag) Time Altitude Azimuth Time Altitude Azimuth Time Altitude Azimuth
Cosmos 2061 Rocket 4.3 18:25:35 10° S 18:31:51 77° W 18:38:14 10° N
Cosmos 1862 Rocket 4.0 18:29:35 10° SSE 18:33:43 41° E 18:37:55 10° NNE
Tsikada Rocket 4.0 18:32:23 10° N 18:38:28 59° E 18:44:32 10° SSE
BREEZE-M DEB (TANK) 4.0 18:40:35 10° N 18:41:26 12° NNE 18:42:24 10° NE
COSMOS 2406 3.2 18:37:35 10° NNW 18:43:21 78° ENE 18:49:03 10° SSE
Cosmos 371 Rocket 3.4 18:39:05 10° NNW 18:43:55 85° WSW 18:48:43 10° SSE
COSMOS 2455 2.9 18:38:37 10° SSW 18:44:32 65° ESE 18:50:30 10° NE
Cosmos 1844 Rocket 2.9 18:39:47 10° SSW 18:45:26 75° WNW 18:51:05 10° NNE
Cosmos 2016 Rocket 4.3 18:39:14 10° SSW 18:45:33 74° W 18:51:52 10° N
Cosmos 468 Rocket 3.9 18:41:49 10° NNW 18:46:59 66° ENE 18:52:04 10° SSE
Cosmos 304 Rocket 4.3 18:45:01 10° N 18:49:27 36° ENE 18:53:51 10° SE
Cosmos 1340 2.8 18:46:41 10° SSW 18:50:26 76° W 18:54:13 10° N
USA 161 4.0 18:50:50 10° NW 18:51:30 11° WNW 18:52:11 10° W
Cosmos 1461 3.7 18:48:25 10° NW 18:53:04 64° WSW 18:57:44 10° SSE
CZ-2C R/B 3.7 18:52:45 10° NNE 18:57:10 58° ESE 19:01:38 10° S
Meteor 2-12 Rocket 4.4 18:51:55 10° S 18:58:00 86° E 19:04:07 10° N
Okean 1-7 4.4 18:54:55 10° SE 18:58:03 20° E 19:01:12 10° NE
Cosmos 2346 Rocket 4.5 18:53:00 10° N 18:59:04 62° E 19:05:11 10° SSE
CSL-04 Debris 4.3 18:56:58 10° S 19:02:25 80° WSW 19:07:51 10° NNW
Meteor 1-26 Rocket 4.1 18:57:00 10° S 19:02:34 72° E 19:08:06 10° NNE
ERS-2 2.5 19:02:05 10° SE 19:05:32 40° ENE 19:09:00 10° N
Cosmos 1437 2.8 19:02:29 10° SSW 19:05:39 77° W 19:08:50 10° N
Cosmos 1763 Rocket 3.5 19:04:00 10° NNW 19:09:10 60° ENE 19:14:15 10° SSE
FENGYUN 3A 4.3 19:04:33 10° SE 19:09:16 32° ENE 19:13:58 10° N
COSMO-SKYMED 1 3.0 19:05:43 10° NNE 19:09:50 41° E 19:13:56 10° S
Cosmos 1844 4.2 19:05:00 10° SW 19:10:42 62° WNW 19:16:28 10° NNE
ERBS 2.4 19:07:22 10° NW 19:10:42 54° NE 19:13:40 13° ESE
YAOGAN 1 2.5 19:06:43 10° SSE 19:10:59 62° ENE 19:15:15 10° N
Cosmos 1833 Rocket 3.6 19:08:55 10° N 19:13:39 27° NE 19:17:34 13° ESE
Cosmos 2278 Rocket 2.2 19:11:02 10° SSW 19:16:41 73° ESE 19:22:21 10° NNE
Cosmos 1814 Rocket 4.0 19:12:09 10° NNW 19:17:32 80° ENE 19:22:53 10° SSE
Cosmos 1464 Rocket 4.4 19:12:14 10° SSE 19:17:43 36° E 19:23:15 10° NNE
Cosmos 2221 Rocket 4.4 19:14:05 10° SSE 19:17:52 29° E 19:20:30 16° NE
CZ-4 R/B 1.5 19:14:28 10° S 19:18:21 73° WSW 19:22:12 10° NNW
USA 116 4.0 19:15:10 10° N 19:19:47 81° WNW 19:23:49 10° SSW
USA 234 3.3 19:14:42 14° NE 19:20:27 68° SE 19:26:56 10° SW
ALOS 2.7 19:17:14 10° SE 19:21:31 38° ENE 19:25:49 10° N
BREEZE-M R/B 2.8 19:27:24 10° NW 19:30:09 48° NNE 19:31:38 31° E
Ariane Rocket 4.4 19:25:29 10° S 19:30:17 42° W 19:35:07 10° NNW
SMAP 4.4 19:27:31 10° S 19:31:55 42° W 19:36:20 10° NNW
Cosmos 1703 Rocket 3.5 19:28:26 10° S 19:32:52 70° E 19:37:20 10° NNE
Cosmos 2233 Rocket 4.3 19:28:36 10° SSW 19:34:50 69° W 19:41:04 10° N
Okean 2 Rocket 3.6 19:36:44 10° N 19:40:57 37° ENE 19:45:09 10° SE
Cosmos 540 Rocket 3.7 19:37:12 10° N 19:42:11 45° ENE 19:45:43 18° SE
Cosmos 841 Rocket 3.4 19:37:22 10° NNW 19:42:41 89° ENE 19:47:57 10° SSE
Meteor 2-6 Rocket 4.2 19:37:32 10° S 19:42:47 54° E 19:48:09 10° NNE
SL-27 R/B 2.2 19:39:52 10° N 19:43:11 61° ENE 19:43:25 59° E
Cosmos 1486 Rocket 4.1 19:39:06 10° SSW 19:44:17 76° WNW 19:49:33 10° NNE
CZ-4C R/B 3.7 19:39:07 10° NNW 19:45:05 28° NE 19:46:35 27° ENE
Meteor 1-25 Rocket 4.5 19:40:54 10° NNW 19:46:46 75° W 19:52:32 10° S
Cosmos 1633 2.4 19:45:07 10° N 19:48:47 82° E 19:52:27 10° S
Meteor 1-20 Rocket 4.4 19:46:24 10° NNW 19:51:58 73° W 19:57:24 10° S
SPOT 3 Rocket 3.5 19:47:41 10° SSE 19:52:55 89° W 19:58:10 10° NNW
Cosmos 2082 Rocket 2.2 19:51:34 10° NNW 19:57:12 57° ENE 19:59:53 30° SE
Cosmos 1606 3.0 19:53:32 10° SSW 19:57:17 65° W 19:59:49 20° N
SKYMED 2 4.2 19:53:38 10° N 19:57:53 55° WNW 20:02:07 10° SSW
EO 1 Del DPAF 4.1 19:55:53 10° N 19:59:32 48° WNW 20:03:12 10° SSW
Cosmos 1354 Rocket 3.9 19:54:23 10° SSW 19:59:38 76° ESE 20:02:11 31° NNE
FengYun 1-2 T 4.3 19:56:43 24° SE 19:59:49 49° ENE 20:05:09 10° N
NOAA 12 4.1 19:56:05 10° SSE 20:01:25 86° WSW 20:06:46 10° NNW
Cosmos 1513 Rocket 4.4 19:55:43 10° S 20:02:01 75° E 20:08:16 10° N
Cosmos 1782 3.4 19:59:26 10° SSW 20:03:24 58° W 20:06:28 16° N
Lacrosse 5 4.1 20:01:34 10° NW 20:03:53 13° NNW 20:05:29 11° N
Sich 1 Rocket 4.5 20:01:21 10° NNW 20:05:37 49° W 20:09:54 10° SSW
Meteor 1-27 Rocket 3.8 20:00:19 10° S 20:06:01 56° E 20:08:02 38° NE
CENTAUR R/B 4.2 20:02:02 10° W 20:07:18 27° NW 20:13:02 10° NNE
Meteor 1-10 Rocket 4.3 20:07:19 10° SSW 20:12:56 77° W 20:18:44 10° N
Cosmos 1891 Rocket 4.4 20:07:36 10° S 20:13:48 89° ESE 20:19:57 10° N
BREEZE-M DEB (TANK) 4.2 20:13:23 10° W 20:14:27 25° W 20:14:27 25° W
Cosmos 44 Rocket 4.4 20:11:17 10° NNW 20:14:06 30° N 20:14:06 30° N
Cosmos 405 Rocket 4.3 20:22:20 10° SSW 20:24:15 27° SSW 20:24:15 27° SSW
Thor Agena Rocket 3.5 20:28:53 71° S 20:28:53 71° S 20:33:27 10° SSW
Cosmos 2034 Rocket 4.1 20:26:44 10° SSW 20:33:05 76° W 20:39:29 10° N
Nadezhda 4 Rocket 3.7 20:28:54 10° N 20:35:04 81° E 20:35:32 75° SE
Meteor 1-11 Rocket 3.8 20:37:50 10° NNW 20:43:44 77° W 20:44:42 62° SSW
Cosmos 1833 Rocket 3.7 20:52:26 10° NW 20:57:44 44° WSW 20:59:25 34° SSW
USA 234 4.1 21:02:04 38° N 21:03:12 40° NNW 21:09:12 10° W
CZ-4C R/B 3.6 21:27:04 10° NW 21:31:49 46° NW 21:31:49 46° NW
Cosmos 2082 Rocket 4.5 21:36:52 10° NW 21:40:44 19° W 21:41:54 18° WSW
